Location: Burera
(21.3780°N, 81.9534°E)
Time: 12:32:58
(UTC+00:00)

Helios 1B - Pass Details

Date: 13 August 2020
Orbit: 620 x 623 km, 98.3° (Epoch: 21 September)

Event Time Altitude Azimuth Distance (km) Brightness Sun altitude
Exits shadow 22:23:46 80° 179° (S) 634 4.4 -23.9°
Maximum altitude 22:24:00 88° 256° (WSW) 626 4.4 -23.9°
Drops below altitude 10° 22:28:21 10° 348° (NNW) 1,990 7.3 -23.0°
Sets 22:30:32 0° 348° (NNW) 2,898 8.2 -22.5°
